Hailey, ID

2:57 AM MDT on April 27, 2018 (GMT -0600)
Friedman Memorial

Weather History for KSUN - September, 2013

Change the Weather History Date:

Sunday, September 29, 2013

  Actual Average Record
Temperature  
Mean Temperature 50 °F -  
Max Temperature 53 °F 67 °F 86 °F (2005)
Min Temperature 46 °F 38 °F 32 °F (1999)
Degree Days  
Heating Degree Days 16    
Moisture  
Dew Point 43 °F    
Average Humidity 79    
Maximum Humidity 100    
Minimum Humidity 58    
Precipitation  
Precipitation 0.00 in - - ()
Sea Level Pressure  
Sea Level Pressure 29.96 in    
Wind  
Wind Speed 4 mph (South)    
Max Wind Speed 17 mph    
Max Gust Speed 29 mph    
Visibility 9 miles    
Events Rain    
Averages and records for this station are not official NWS values.
T = Trace of Precipitation, MM = Missing Value Source: NWS Daily Summary

Daily Weather History Graph

Daily Weather History Graph

Search for Another Location

Airport or City:

Astronomy

Sep. 29, 2013 Rise Set
Actual Time 7:32 AM MDT 7:21 PM MDT
Civil Twilight 7:04 AM MDT 7:49 PM MDT
Nautical Twilight 6:30 AM MDT 8:22 PM MDT
Astronomical Twilight 5:57 AM MDT 8:56 PM MDT
Moon 2:09 AM MDT (9/29) 4:26 PM MDT (9/29)
Length of Visible Light 12h 45m
Length of Day
11h 48m
Waning Crescent, 26% of the Moon is Illuminated
Sep 29
Waning Crescent
Oct 4
New
Oct 11
First Quarter
Oct 18
Full
Oct 26
Last Quarter

Hourly Weather History & Observations

Time (MDT) Temp. Windchill Dew Point Humidity Pressure Visibility Wind Dir Wind Speed Gust Speed Precip Events Conditions
12:15 AM 50.0 °F - 39.2 °F 66% 30.03 in 10.0 mi NW 4.6 mph - N/A   Overcast
12:35 AM 48.2 °F - 41.0 °F 76% 30.02 in 10.0 mi Calm Calm - N/A   Mostly Cloudy
12:55 AM 48.2 °F - 39.2 °F 71% 30.01 in 10.0 mi Calm Calm - N/A   Scattered Clouds
1:15 AM 46.4 °F 45.2 °F 41.0 °F 81% 30.01 in 10.0 mi NNW 3.5 mph - N/A   Mostly Cloudy
1:35 AM 46.4 °F 43.5 °F 41.0 °F 81% 29.99 in 10.0 mi West 5.8 mph - N/A   Light Drizzle
1:55 AM 46.4 °F 44.3 °F 41.0 °F 81% 30.00 in 10.0 mi North 4.6 mph - N/A Rain Light Rain
2:15 AM 48.2 °F - 41.0 °F 76% 29.99 in 10.0 mi NW 3.5 mph - N/A   Overcast
2:35 AM 48.2 °F - 41.0 °F 76% 29.99 in 10.0 mi WNW 3.5 mph - N/A   Overcast
2:55 AM 48.2 °F - 41.0 °F 76% 29.99 in 10.0 mi NW 3.5 mph - N/A   Overcast
3:15 AM 48.2 °F - 41.0 °F 76% 29.99 in 10.0 mi Calm Calm - N/A   Light Drizzle
3:35 AM 46.4 °F 43.5 °F 41.0 °F 81% 29.99 in 10.0 mi NNW 5.8 mph - N/A Rain Light Rain
3:55 AM 46.4 °F 45.2 °F 41.0 °F 81% 29.99 in 10.0 mi West 3.5 mph - N/A Rain Light Rain
4:15 AM 46.4 °F - 42.8 °F 87% 29.97 in 10.0 mi Calm Calm - N/A   Light Drizzle
4:35 AM 50.0 °F - 41.0 °F 71% 29.99 in 10.0 mi WSW 6.9 mph - N/A Rain Light Rain
4:55 AM 51.8 °F - 41.0 °F 67% 30.00 in 10.0 mi WSW 17.3 mph 27.6 mph N/A Rain Light Rain
5:15 AM 50.0 °F - 42.8 °F 76% 29.98 in 7.0 mi East 6.9 mph - N/A Rain Rain
5:35 AM 50.0 °F - 41.0 °F 71% 29.99 in 10.0 mi SSE 3.5 mph - N/A Rain Rain
5:55 AM 50.0 °F - 42.8 °F 76% 29.96 in 10.0 mi East 4.6 mph - N/A Rain Light Rain
6:15 AM 50.0 °F - 42.8 °F 76% 29.96 in 10.0 mi SSE 3.5 mph - N/A   Light Drizzle
6:35 AM 50.0 °F - 42.8 °F 76% 29.96 in 10.0 mi SSW 3.5 mph - N/A   Drizzle
6:47 AM 48.2 °F - 44.6 °F 87% 29.96 in 10.0 mi SE 5.8 mph - N/A   Overcast
6:55 AM 48.2 °F - 42.8 °F 82% 29.96 in 10.0 mi SSE 3.5 mph - N/A Rain Light Rain
7:47 AM 50.0 °F - 42.8 °F 76% 29.95 in 10.0 mi ESE 12.7 mph 28.8 mph N/A Rain Light Rain
8:47 AM 53.6 °F - 39.2 °F 58% 29.96 in 10.0 mi SSW 11.5 mph 20.7 mph N/A Rain Light Rain
9:47 AM 50.0 °F - 42.8 °F 76% 29.96 in 10.0 mi ENE 4.6 mph - N/A Rain Light Rain
10:47 AM 51.8 °F - 41.0 °F 67% 29.96 in 10.0 mi ENE 4.6 mph - N/A Rain Light Rain
11:47 AM 51.8 °F - 41.0 °F 67% 29.96 in 10.0 mi SSW 11.5 mph 17.3 mph N/A Rain Light Rain
1:47 PM 50.0 °F - 41.0 °F 71% 29.96 in 7.0 mi SSW 8.1 mph - N/A Rain Light Rain
1:50 PM 48.2 °F - 42.8 °F 82% 29.96 in 7.0 mi South 9.2 mph 20.7 mph N/A Rain Rain
2:47 PM 50.0 °F - 42.8 °F 76% 29.94 in 10.0 mi ESE 6.9 mph - N/A   Overcast
3:50 PM 51.8 °F - 42.8 °F 71% 29.91 in 10.0 mi East 4.6 mph - N/A Rain Light Rain
4:53 PM 51.8 °F - 44.6 °F 76% 29.89 in 10.0 mi Calm Calm - N/A   Overcast
5:50 PM 51.8 °F - 46.4 °F 82% 29.89 in 10.0 mi Calm Calm - N/A   Overcast
6:47 PM 51.8 °F - 46.4 °F 82% 29.91 in 7.0 mi SE 5.8 mph - N/A Rain Light Rain
7:47 PM 48.2 °F - 46.4 °F 93% 29.91 in 7.0 mi Calm Calm - N/A Rain Light Rain
8:55 PM 48.2 °F - 46.4 °F 93% 29.92 in 7.0 mi Calm Calm - N/A Rain Light Rain
9:47 PM 48.2 °F - 46.4 °F 93% 29.91 in 7.0 mi Calm Calm - N/A Rain Light Rain
10:47 PM 48.2 °F - 46.4 °F 93% 29.90 in 7.0 mi Calm Calm - N/A Rain Light Rain
11:15 PM 46.4 °F - 44.6 °F 93% 29.90 in 10.0 mi Calm Calm - N/A   Light Drizzle
11:35 PM 46.4 °F - 46.4 °F 100% 29.90 in 10.0 mi Calm Calm - N/A Rain Light Rain
11:55 PM 46.4 °F - 46.4 °F 100% 29.89 in 10.0 mi Calm Calm - N/A   Drizzle